Location: Bovenkerk
(52.2915°N, 4.8336°E)
Time: 02:43:25
(UTC+00:00)

USA 32 - Pass Details

Date: 09 April 2020
Orbit: 777 x 783 km, 85.0° (Epoch: 03 June)

Event Time Altitude Azimuth Distance (km) Brightness Sun altitude
Rises 20:16:33 0° 356° (N) 3,277 7.9 -15.6°
Reaches altitude 10° 20:19:01 10° 3° (N) 2,343 7.0 -15.9°
Maximum altitude 20:24:04 46° 76° (ENE) 1,037 4.4 -16.5°
Enters shadow 20:26:24 28° 132° (SE) 1,420 4.8 -16.7°
